Flag for Indonesia Weather past 2 weeks in Medan, North Sumatra, Indonesia

Now
81 °F

Scattered clouds.


Feels Like: 88 °F
Forecast: 77 / 89 °F
Wind: 5 mph from West

Location: Medan / Polonia

Current Time: Jan 31, 2015 at 6:45:52 PM

Latest Report: Jan 31, 2015 at 6:00 PM


Visibility: 3 mi

Pressure: 29.83 "Hg

Humidity: 94%

Dew point: 79 °F

Location of MedanLocation

Historic Weather in Medan — Graph

°F

Medan temperature yesterday

Maximum temperature yesterday: 86 °F (at 10:30 AM)
Minimum temperature yesterday: 75 °F (at 5:00 AM)
Average temperature yesterday: 80 °F

Past Weeks' High & Low Weather Summary

 TemperatureHumidityPressure
High91 °F (Jan 20, 12:00 PM)100% (Jan 17, 12:30 AM)30.04 "Hg (Jan 17, 12:30 AM)
Low72 °F (Jan 19, 4:00 AM)52% (Jan 20, 12:30 PM)29.77 "Hg (Jan 28, 4:00 AM)
Average80 °F85%29.88 "Hg
* Reported Jan 16 5:00 PM — Jan 31 5:30 PM, Medan, Weather by CustomWeather, © 2014

Note: Actual official high and low records may vary slightly from our data, if they occured in-between our weather recording intervals... More about our weather records

Advertising

Medan weather history for previous 24 hours

 ConditionsComfort  
Time TempWeatherWind HumidityBarometerVisibility
5:30 PM
Jan 31
82 °FScattered clouds.7 mph89%29.83 "Hg4 mi
5:00 PM84 °FScattered clouds.7 mph84%29.83 "Hg4 mi
4:30 PM84 °FPassing clouds.7 mph79%29.80 "Hg4 mi
4:00 PM84 °FScattered clouds.9 mph74%29.83 "Hg5 mi
3:30 PM84 °FScattered clouds.7 mph79%29.83 "Hg5 mi
3:00 PM84 °FScattered clouds.6 mph79%29.83 "Hg4 mi
2:30 PM82 °FScattered clouds.6 mph89%29.86 "Hg4 mi
2:00 PM84 °FScattered clouds.7 mph84%29.86 "Hg4 mi
1:30 PM82 °FPartly sunny.6 mph89%29.89 "Hg4 mi
1:00 PM84 °FPartly sunny.5 mph79%29.89 "Hg4 mi
12:30 PM84 °FScattered clouds.6 mph79%29.92 "Hg5 mi
12:00 PM86 °FPassing clouds.7 mph75%29.92 "HgN/A
11:30 AM84 °FScattered clouds.5 mph74%29.95 "HgN/A
11:00 AM86 °FScattered clouds.8 mph70%29.95 "HgN/A
10:00 AM82 °FPartly sunny.6 mph84%29.95 "Hg3 mi
9:30 AM82 °FScattered clouds.5 mph79%29.95 "Hg3 mi
9:00 AM81 °FScattered clouds.5 mph84%29.95 "Hg2 mi
8:30 AM77 °FFog.5 mph94%29.92 "Hg2 mi
8:00 AM75 °FFog.3 mph100%29.89 "Hg1 mi
7:30 AM75 °FFog.5 mph100%29.89 "Hg1 mi
7:00 AM73 °FFog.3 mph100%29.89 "Hg1 mi
6:30 AM73 °FPassing clouds.3 mph100%29.86 "Hg2 mi
6:00 AM75 °FPassing clouds.No wind100%29.86 "Hg2 mi
5:30 AM75 °FPassing clouds.3 mph100%29.86 "Hg2 mi
5:00 AM73 °FPassing clouds.3 mph100%29.83 "Hg2 mi
3:30 AM75 °FPassing clouds.No wind100%29.86 "Hg2 mi
3:00 AM75 °FPassing clouds.No wind100%29.86 "Hg2 mi
2:00 AM75 °FPassing clouds.5 mph100%29.86 "Hg2 mi
1:30 AM75 °FPassing clouds.3 mph100%29.89 "Hg2 mi
1:00 AM75 °FPassing clouds.3 mph100%29.89 "Hg2 mi
12:30 AM75 °FPassing clouds.5 mph100%29.92 "Hg2 mi
12:00 AM75 °FPassing clouds.5 mph100%29.92 "Hg2 mi
11:30 PM
Jan 30
77 °FPassing clouds.5 mph100%29.92 "Hg2 mi
11:00 PM77 °FPassing clouds.No wind100%29.92 "Hg2 mi
10:30 PM77 °FPassing clouds.3 mph100%29.92 "Hg2 mi
10:00 PM77 °FPassing clouds.3 mph100%29.92 "Hg2 mi
9:30 PM79 °FPassing clouds.3 mph94%29.92 "Hg2 mi
9:00 PM79 °FPassing clouds.3 mph100%29.89 "Hg2 mi
8:30 PM79 °FPassing clouds.3 mph100%29.89 "Hg2 mi
8:00 PM81 °FPassing clouds.6 mph94%29.89 "Hg2 mi
7:30 PM81 °FPassing clouds.5 mph94%29.86 "Hg2 mi
7:00 PM81 °FHaze.5 mph94%29.86 "Hg3 mi
6:30 PM82 °FHaze.5 mph89%29.83 "Hg3 mi
6:00 PM82 °FPassing clouds.5 mph89%29.83 "Hg4 mi
Weather by CustomWeather, © 2014

See weather overviewHow to use our weather pages